When you browse on this site, cookies collect data to enhance your experience and personalize the content and advertising you see.
Visit our Privacy Policy to learn more. By continuing to use the site, you agree to this use of cookies and data.
EN

Hourly Weather Jardin

Today, 27 September, Sunday

Time Temperature Precipitation Wind Pressure Humidity
00:00 +15°C° 0.8 mm 0 mps 617 mmHg 98%
01:00 +15°C° 0.8 mm 0 mps 617 mmHg 98%
02:00 +15°C° 0.3 mm 0 mps 617 mmHg 98%
03:00 +15°C° 0.3 mm 0 mps 616 mmHg 98%
04:00 +15°C° 0.3 mm 0 mps 616 mmHg 99%
05:00 +15°C° 0.2 mm 0 mps 617 mmHg 98%
06:00 +15°C° 0.2 mm 0 mps 617 mmHg 98%
07:00 +15°C° 0.2 mm 0 mps 618 mmHg 98%
08:00 +16°C° 0.6 mm 0 mps 618 mmHg 95%
09:00 +17°C° 0.6 mm 0 mps 619 mmHg 92%
10:00 +20°C° 0.6 mm 1 mps 620 mmHg 89%
11:00 +21°C° 0.9 mm 1 mps 619 mmHg 85%
12:00 +22°C° 0.9 mm 1 mps 618 mmHg 82%
13:00 +22°C° 0.9 mm 1 mps 618 mmHg 79%
14:00 +22°C° 1 mm 1 mps 617 mmHg 81%
15:00 +20°C° 1 mm 0 mps 616 mmHg 83%
16:00 +19°C° 1 mm 0 mps 616 mmHg 86%
17:00 +18°C° 0.7 mm 0 mps 616 mmHg 89%
18:00 +19°C° 0.7 mm 1 mps 616 mmHg 93%
19:00 +18°C° 0.7 mm 1 mps 616 mmHg 96%
20:00 +16°C° 0.6 mm 1 mps 616 mmHg 97%
21:00 +15°C° 0.6 mm 0 mps 617 mmHg 97%
22:00 +15°C° 0.6 mm 0 mps 617 mmHg 97%
23:00 +15°C° 0.2 mm 0 mps 617 mmHg 97%

Tomorrow, 28 September, Monday

Time Temperature Precipitation Wind Pressure Humidity
00:00 +15°C° 0.2 mm 0 mps 616 mmHg 97%
01:00 +14°C° 0.2 mm 0 mps 616 mmHg 97%
02:00 +14°C° 0.1 mm 0 mps 616 mmHg 97%
03:00 +14°C° 0.1 mm 0 mps 615 mmHg 97%
04:00 +14°C° 0.1 mm 0 mps 615 mmHg 97%
05:00 +14°C° 0 mm 0 mps 615 mmHg 96%
06:00 +14°C° 0 mm 0 mps 616 mmHg 96%
07:00 +15°C° 0 mm 0 mps 616 mmHg 95%
08:00 +17°C° 0.1 mm 0 mps 617 mmHg 84%
09:00 +22°C° 0.1 mm 1 mps 619 mmHg 73%
10:00 +24°C° 0.1 mm 1 mps 620 mmHg 62%
11:00 +25°C° 0.4 mm 1 mps 619 mmHg 61%
12:00 +25°C° 0.4 mm 1 mps 618 mmHg 60%
13:00 +26°C° 0.4 mm 1 mps 618 mmHg 60%
14:00 +25°C° 0.9 mm 1 mps 617 mmHg 65%
15:00 +24°C° 0.9 mm 1 mps 616 mmHg 71%
16:00 +23°C° 0.9 mm 1 mps 616 mmHg 77%
17:00 +22°C° 1.3 mm 1 mps 615 mmHg 83%
18:00 +20°C° 1.3 mm 1 mps 615 mmHg 89%
19:00 +18°C° 1.3 mm 1 mps 615 mmHg 96%
20:00 +18°C° 1.4 mm 1 mps 616 mmHg 96%
21:00 +18°C° 1.4 mm 1 mps 616 mmHg 97%
22:00 +16°C° 1.4 mm 0 mps 617 mmHg 98%
23:00 +15°C° 1.2 mm 0 mps 616 mmHg 98%

Day after tomorrow, 29 September, Tuesday

Time Temperature Precipitation Wind Pressure Humidity
00:00 +15°C° 1.2 mm 0 mps 616 mmHg 98%
01:00 +15°C° 1.2 mm 0 mps 616 mmHg 98%
02:00 +15°C° 1.2 mm 0 mps 616 mmHg 98%
03:00 +15°C° 1.2 mm 0 mps 616 mmHg 98%
04:00 +15°C° 1.2 mm 0 mps 616 mmHg 99%
05:00 +15°C° 2.8 mm 0 mps 616 mmHg 99%
06:00 +15°C° 2.8 mm 0 mps 617 mmHg 99%
07:00 +15°C° 2.8 mm 0 mps 617 mmHg 99%
08:00 +16°C° 0.8 mm 0 mps 617 mmHg 97%
09:00 +16°C° 0.8 mm 0 mps 618 mmHg 95%
10:00 +17°C° 0.8 mm 0 mps 618 mmHg 93%
11:00 +19°C° 0.3 mm 0 mps 618 mmHg 83%
12:00 +21°C° 0.3 mm 0 mps 618 mmHg 73%
13:00 +23°C° 0.3 mm 0 mps 618 mmHg 63%
14:00 +22°C° 1.2 mm 0 mps 617 mmHg 71%
15:00 +23°C° 1.2 mm 1 mps 616 mmHg 78%
16:00 +21°C° 1.2 mm 1 mps 615 mmHg 86%
17:00 +20°C° 1.6 mm 1 mps 616 mmHg 90%
18:00 +19°C° 1.6 mm 1 mps 616 mmHg 94%
19:00 +18°C° 1.6 mm 1 mps 616 mmHg 98%
20:00 +16°C° 0.9 mm 1 mps 616 mmHg 97%
21:00 +15°C° 0.9 mm 0 mps 617 mmHg 97%
22:00 +15°C° 0.9 mm 0 mps 617 mmHg 97%
23:00 +15°C° 0.1 mm 0 mps 617 mmHg 96%

30 September, Wednesday

Time Temperature Precipitation Wind Pressure Humidity
00:00 +15°C° 0.1 mm 0 mps 616 mmHg 96%
01:00 +14°C° 0.1 mm 0 mps 616 mmHg 96%
02:00 +14°C° 0 mm 0 mps 616 mmHg 96%
03:00 +14°C° 0 mm 0 mps 616 mmHg 96%
04:00 +14°C° 0 mm 0 mps 616 mmHg 96%
05:00 +14°C° 0 mm 0 mps 616 mmHg 95%
06:00 +15°C° 0 mm 0 mps 617 mmHg 95%
07:00 +15°C° 0 mm 0 mps 617 mmHg 94%
08:00 +17°C° 0.2 mm 0 mps 618 mmHg 86%
09:00 +19°C° 0.2 mm 0 mps 619 mmHg 78%
10:00 +24°C° 0.2 mm 1 mps 620 mmHg 71%
11:00 +24°C° 1.2 mm 1 mps 619 mmHg 71%
12:00 +23°C° 1.2 mm 0 mps 619 mmHg 71%
13:00 +23°C° 1.2 mm 0 mps 618 mmHg 71%
14:00 +24°C° 1.4 mm 1 mps 617 mmHg 76%
15:00 +23°C° 1.4 mm 1 mps 617 mmHg 80%
16:00 +22°C° 1.4 mm 1 mps 616 mmHg 84%
17:00 +21°C° 1.1 mm 1 mps 616 mmHg 88%
18:00 +19°C° 1.1 mm 1 mps 616 mmHg 93%
19:00 +18°C° 1.1 mm 1 mps 616 mmHg 97%
20:00 +18°C° 1.2 mm 1 mps 616 mmHg 97%
21:00 +18°C° 1.2 mm 1 mps 617 mmHg 98%
22:00 +18°C° 1.2 mm 1 mps 617 mmHg 98%
23:00 +18°C° 1.2 mm 1 mps 617 mmHg 98%

1 October, Thursday

Time Temperature Precipitation Wind Pressure Humidity
00:00 +15°C° 1.2 mm 0 mps 617 mmHg 98%
01:00 +15°C° 1.2 mm 0 mps 616 mmHg 98%
02:00 +15°C° 0.6 mm 0 mps 616 mmHg 98%
03:00 +15°C° 0.6 mm 0 mps 616 mmHg 98%
04:00 +15°C° 0.6 mm 0 mps 616 mmHg 98%
05:00 +15°C° 0.1 mm 0 mps 616 mmHg 97%
06:00 +15°C° 0.1 mm 0 mps 617 mmHg 97%
07:00 +16°C° 0.1 mm 0 mps 617 mmHg 96%
08:00 +17°C° 0.4 mm 0 mps 618 mmHg 92%
09:00 +19°C° 0.4 mm 0 mps 618 mmHg 87%
10:00 +20°C° 0.4 mm 0 mps 619 mmHg 83%
11:00 +21°C° 0.8 mm 0 mps 619 mmHg 81%
12:00 +23°C° 0.8 mm 1 mps 618 mmHg 79%
13:00 +23°C° 0.8 mm 1 mps 617 mmHg 77%
14:00 +22°C° 0.7 mm 1 mps 617 mmHg 81%
15:00 +22°C° 0.7 mm 1 mps 616 mmHg 85%
16:00 +21°C° 0.7 mm 1 mps 615 mmHg 89%
17:00 +20°C° 0.4 mm 1 mps 615 mmHg 92%
18:00 +18°C° 0.4 mm 1 mps 615 mmHg 94%
19:00 +16°C° 0.4 mm 1 mps 616 mmHg 97%
20:00 +16°C° 0.1 mm 1 mps 616 mmHg 97%
21:00 +16°C° 0.1 mm 1 mps 616 mmHg 97%
22:00 +15°C° 0.1 mm 0 mps 617 mmHg 97%
23:00 +14°C° 0.1 mm 0 mps 616 mmHg 97%

2 October, Friday

Time Temperature Precipitation Wind Pressure Humidity
00:00 +14°C° 0.1 mm 0 mps 616 mmHg 97%
01:00 +14°C° 0.1 mm 0 mps 616 mmHg 97%
02:00 +14°C° 0.1 mm 0 mps 616 mmHg 97%
03:00 +14°C° 0.1 mm 0 mps 616 mmHg 97%
04:00 +14°C° 0.1 mm 0 mps 615 mmHg 97%
05:00 +14°C° 0 mm 0 mps 616 mmHg 96%
06:00 +15°C° 0 mm 0 mps 617 mmHg 95%
07:00 +15°C° 0 mm 0 mps 617 mmHg 95%
08:00 +17°C° 0.3 mm 0 mps 618 mmHg 89%
09:00 +18°C° 0.3 mm 0 mps 618 mmHg 84%
10:00 +22°C° 0.3 mm 1 mps 619 mmHg 78%
11:00 +23°C° 0.9 mm 1 mps 618 mmHg 78%
12:00 +21°C° 0.9 mm 0 mps 618 mmHg 77%
13:00 +22°C° 0.9 mm 0 mps 617 mmHg 76%
14:00 +23°C° 1.1 mm 1 mps 617 mmHg 81%
15:00 +22°C° 1.1 mm 1 mps 616 mmHg 85%
16:00 +21°C° 1.1 mm 1 mps 615 mmHg 90%
17:00 +20°C° 0.9 mm 1 mps 615 mmHg 92%
18:00 +19°C° 0.9 mm 1 mps 616 mmHg 95%
19:00 +16°C° 0.9 mm 1 mps 616 mmHg 97%
20:00 +16°C° 0.5 mm 1 mps 616 mmHg 98%
21:00 +15°C° 0.5 mm 0 mps 616 mmHg 98%
22:00 +15°C° 0.5 mm 0 mps 617 mmHg 98%
23:00 +15°C° 0.3 mm 0 mps 617 mmHg 98%
Show more